Time,TemperatureF,DewpointF,PressureIn,WindDirection,WindDirectionDegrees,WindSpeedMPH,WindSpeedGustMPH,Humidity,HourlyPrecipIn,Conditions,Clouds,dailyrainin,SoftwareType,DateUTC
2013-02-07 00:00:00,47.3,43.0,30.03,WNW,292,0.0,0.0,83,0.00,,,-99.99,wx200d/1.3,2013-02-07 08:00:00,
2013-02-07 00:15:00,46.9,41.0,30.03,WNW,292,0.0,0.0,82,0.00,,,-99.99,wx200d/1.3,2013-02-07 08:15:00,
2013-02-07 00:30:00,46.8,41.0,30.03,West,265,0.0,0.0,83,0.00,,,-99.99,wx200d/1.3,2013-02-07 08:30:00,
2013-02-07 00:45:00,46.9,41.0,30.03,West,265,0.0,0.0,83,0.00,,,-99.99,wx200d/1.3,2013-02-07 08:45:00,
2013-02-07 01:00:00,47.3,43.0,30.03,WNW,282,0.0,0.0,84,0.00,,,-99.99,wx200d/1.3,2013-02-07 09:00:00,
2013-02-07 01:15:00,47.3,45.0,30.03,WNW,282,0.0,0.0,85,0.00,,,-99.99,wx200d/1.3,2013-02-07 09:15:00,
2013-02-07 01:30:00,47.7,45.0,30.03,West,270,0.0,0.0,86,0.00,,,-99.99,wx200d/1.3,2013-02-07 09:30:00,
2013-02-07 01:45:00,47.7,45.0,30.03,West,275,0.0,0.0,86,0.00,,,-99.99,wx200d/1.3,2013-02-07 09:45:00,
2013-02-07 02:00:00,48.0,45.0,30.03,West,275,0.0,0.0,86,0.00,,,-99.99,wx200d/1.3,2013-02-07 10:00:00,
2013-02-07 02:15:00,48.0,45.0,30.03,West,275,0.0,0.0,85,0.00,,,-99.99,wx200d/1.3,2013-02-07 10:15:00,
2013-02-07 02:30:00,47.7,45.0,30.03,West,275,0.0,0.0,85,0.00,,,-99.99,wx200d/1.3,2013-02-07 10:30:00,
2013-02-07 02:45:00,47.1,43.0,30.03,West,275,0.0,0.0,85,0.00,,,-99.99,wx200d/1.3,2013-02-07 10:45:00,
2013-02-07 03:00:00,47.8,45.0,30.03,West,275,0.0,0.0,85,0.00,,,-99.99,wx200d/1.3,2013-02-07 11:00:00,
2013-02-07 03:15:00,47.8,43.0,30.03,West,275,0.0,0.0,84,0.00,,,-99.99,wx200d/1.3,2013-02-07 11:15:00,
2013-02-07 03:30:00,47.5,43.0,30.00,West,275,0.0,0.0,84,0.00,,,-99.99,wx200d/1.3,2013-02-07 11:30:00,
2013-02-07 03:45:00,47.3,43.0,30.00,West,275,0.0,0.0,84,0.00,,,-99.99,wx200d/1.3,2013-02-07 11:45:00,
2013-02-07 04:00:00,48.0,43.0,30.00,West,275,0.0,0.0,84,0.00,,,-99.99,wx200d/1.3,2013-02-07 12:00:00,
2013-02-07 04:15:00,48.4,43.0,30.00,West,275,0.0,0.0,84,0.00,,,-99.99,wx200d/1.3,2013-02-07 12:15:00,
2013-02-07 04:30:00,48.6,43.0,30.00,West,275,0.0,0.0,84,0.00,,,-99.99,wx200d/1.3,2013-02-07 12:30:00,
2013-02-07 04:45:00,48.6,43.0,30.00,West,275,0.0,0.0,83,0.00,,,-99.99,wx200d/1.3,2013-02-07 12:45:00,
2013-02-07 05:00:00,48.0,43.0,30.00,West,275,0.0,0.0,84,0.00,,,-99.99,wx200d/1.3,2013-02-07 13:00:00,
2013-02-07 05:15:00,48.2,43.0,30.00,West,275,0.0,0.0,82,0.00,,,-99.99,wx200d/1.3,2013-02-07 13:15:00,
2013-02-07 05:30:00,48.2,43.0,30.00,West,275,0.0,0.0,82,0.00,,,-99.99,wx200d/1.3,2013-02-07 13:30:00,
2013-02-07 05:45:00,47.3,43.0,30.00,West,275,0.0,0.0,81,0.00,,,-99.99,wx200d/1.3,2013-02-07 13:45:00,
2013-02-07 06:00:00,47.3,43.0,30.00,West,275,0.0,0.0,80,0.00,,,-99.99,wx200d/1.3,2013-02-07 14:00:00,
2013-02-07 06:15:00,47.3,43.0,29.97,West,275,0.0,0.0,79,0.00,,,-99.99,wx200d/1.3,2013-02-07 14:15:00,
2013-02-07 06:30:00,47.1,39.0,29.97,West,275,0.0,0.0,78,0.00,,,-99.99,wx200d/1.3,2013-02-07 14:30:00,
2013-02-07 06:45:00,47.3,41.0,29.97,WSW,256,0.0,0.0,76,0.00,,,-99.99,wx200d/1.3,2013-02-07 14:45:00,
2013-02-07 07:00:00,47.8,41.0,29.97,WSW,256,0.0,0.0,75,0.00,,,-99.99,wx200d/1.3,2013-02-07 15:00:00,
2013-02-07 07:15:00,48.4,41.0,29.97,WSW,256,0.0,0.0,74,0.00,,,-99.99,wx200d/1.3,2013-02-07 15:15:00,
2013-02-07 07:30:00,49.1,41.0,29.97,WSW,256,0.0,0.0,72,0.00,,,-99.99,wx200d/1.3,2013-02-07 15:30:00,
2013-02-07 07:45:00,49.5,41.0,29.97,WSW,256,0.0,0.0,71,0.00,,,-99.99,wx200d/1.3,2013-02-07 15:45:00,
2013-02-07 08:00:00,49.8,41.0,30.00,WSW,256,0.0,0.0,72,0.00,,,-99.99,wx200d/1.3,2013-02-07 16:00:00,
2013-02-07 08:15:00,49.8,41.0,30.00,WSW,256,0.0,0.0,72,0.00,,,-99.99,wx200d/1.3,2013-02-07 16:15:00,
2013-02-07 08:30:00,49.6,41.0,30.00,WSW,256,0.0,0.0,73,0.00,,,-99.99,wx200d/1.3,2013-02-07 16:30:00,
2013-02-07 08:45:00,50.0,43.0,30.00,WNW,289,0.0,0.0,74,0.00,,,-99.99,wx200d/1.3,2013-02-07 16:45:00,
2013-02-07 09:00:00,49.8,41.0,30.00,West,273,0.0,0.0,71,0.00,,,-99.99,wx200d/1.3,2013-02-07 17:00:00,
2013-02-07 09:15:00,50.9,41.0,30.00,West,276,0.0,0.0,67,0.00,,,-99.99,wx200d/1.3,2013-02-07 17:15:00,
2013-02-07 09:30:00,52.2,37.0,30.00,West,261,0.0,0.0,57,0.00,,,-99.99,wx200d/1.3,2013-02-07 17:30:00,
2013-02-07 09:45:00,53.4,37.0,30.00,West,276,0.0,2.2,54,0.00,,,-99.99,wx200d/1.3,2013-02-07 17:45:00,
2013-02-07 10:00:00,54.7,37.0,30.03,West,260,0.0,0.0,50,0.00,,,-99.99,wx200d/1.3,2013-02-07 18:00:00,
2013-02-07 10:15:00,54.0,32.0,30.03,West,264,0.0,3.6,43,0.00,,,-99.99,wx200d/1.3,2013-02-07 18:15:00,
2013-02-07 10:30:00,52.9,32.0,30.03,West,272,0.0,0.0,43,0.00,,,-99.99,wx200d/1.3,2013-02-07 18:30:00,
2013-02-07 10:45:00,52.5,32.0,30.00,West,263,0.0,0.0,42,0.00,,,-99.99,wx200d/1.3,2013-02-07 18:45:00,
2013-02-07 11:00:00,53.1,32.0,30.03,West,272,0.0,2.7,43,0.00,,,-99.99,wx200d/1.3,2013-02-07 19:00:00,
2013-02-07 11:15:00,54.1,32.0,30.03,NNW,343,0.0,0.0,41,0.00,,,-99.99,wx200d/1.3,2013-02-07 19:15:00,
2013-02-07 11:30:00,55.0,32.0,30.00,West,260,0.0,0.0,38,0.00,,,-99.99,wx200d/1.3,2013-02-07 19:30:00,
2013-02-07 11:45:00,55.9,32.0,30.00,WNW,285,0.0,0.0,38,0.00,,,-99.99,wx200d/1.3,2013-02-07 19:45:00,
2013-02-07 12:00:00,56.1,32.0,30.00,West,272,2.2,0.0,37,0.00,,,-99.99,wx200d/1.3,2013-02-07 20:00:00,
2013-02-07 12:15:00,55.8,32.0,30.00,WNW,287,3.1,3.1,37,0.00,,,-99.99,wx200d/1.3,2013-02-07 20:15:00,
2013-02-07 12:30:00,54.9,32.0,30.00,West,268,0.0,2.7,39,0.00,,,-99.99,wx200d/1.3,2013-02-07 20:30:00,
2013-02-07 12:45:00,54.9,32.0,30.00,WNW,284,0.0,2.7,37,0.00,,,-99.99,wx200d/1.3,2013-02-07 20:45:00,
2013-02-07 13:00:00,55.6,32.0,29.97,West,265,0.0,4.0,35,0.00,,,-99.99,wx200d/1.3,2013-02-07 21:00:00,
2013-02-07 13:15:00,55.2,32.0,29.97,West,281,2.2,0.0,35,0.00,,,-99.99,wx200d/1.3,2013-02-07 21:15:00,
2013-02-07 13:30:00,55.2,32.0,29.97,WNW,285,0.0,0.0,35,0.00,,,-99.99,wx200d/1.3,2013-02-07 21:30:00,
2013-02-07 13:45:00,54.0,32.0,29.97,West,273,2.7,2.7,32,0.00,,,-99.99,wx200d/1.3,2013-02-07 21:45:00,
2013-02-07 14:00:00,53.8,32.0,29.97,West,281,2.2,3.1,31,0.00,,,-99.99,wx200d/1.3,2013-02-07 22:00:00,
2013-02-07 14:15:00,54.5,32.0,29.97,West,279,0.0,0.0,31,0.00,,,-99.99,wx200d/1.3,2013-02-07 22:15:00,
2013-02-07 14:30:00,54.1,32.0,29.97,West,267,3.6,3.6,30,0.00,,,-99.99,wx200d/1.3,2013-02-07 22:30:00,
2013-02-07 14:45:00,54.0,32.0,29.97,WNW,285,0.0,4.0,30,0.00,,,-99.99,wx200d/1.3,2013-02-07 22:45:00,
2013-02-07 15:00:00,53.8,32.0,29.97,WNW,294,0.0,2.7,29,0.00,,,-99.99,wx200d/1.3,2013-02-07 23:00:00,
2013-02-07 15:15:00,53.4,32.0,29.97,West,281,2.2,0.0,31,0.00,,,-99.99,wx200d/1.3,2013-02-07 23:15:00,
2013-02-07 15:30:00,53.4,32.0,29.94,ENE,61,2.7,3.1,30,0.00,,,-99.99,wx200d/1.3,2013-02-07 23:30:00,
2013-02-07 15:45:00,53.1,32.0,29.94,NW,309,2.7,2.7,31,0.00,,,-99.99,wx200d/1.3,2013-02-07 23:45:00,
2013-02-07 16:00:00,52.3,32.0,29.94,WNW,284,2.2,2.2,32,0.00,,,-99.99,wx200d/1.3,2013-02-08 00:00:00,
2013-02-07 16:15:00,52.3,32.0,29.94,West,276,0.0,0.0,36,0.00,,,-99.99,wx200d/1.3,2013-02-08 00:15:00,
2013-02-07 16:30:00,52.3,32.0,29.94,West,272,0.0,0.0,35,0.00,,,-99.99,wx200d/1.3,2013-02-08 00:30:00,
2013-02-07 16:45:00,52.2,32.0,29.94,WSW,254,0.0,0.0,33,0.00,,,-99.99,wx200d/1.3,2013-02-08 00:45:00,
2013-02-07 17:00:00,51.1,32.0,29.94,West,274,0.0,2.2,33,0.00,,,-99.99,wx200d/1.3,2013-02-08 01:00:00,
2013-02-07 17:15:00,50.2,32.0,29.94,West,276,0.0,0.0,34,0.00,,,-99.99,wx200d/1.3,2013-02-08 01:15:00,
2013-02-07 17:30:00,49.3,32.0,29.94,West,267,0.0,2.2,33,0.00,,,-99.99,wx200d/1.3,2013-02-08 01:30:00,
2013-02-07 17:45:00,48.0,32.0,29.94,NW,310,0.0,0.0,35,0.00,,,-99.99,wx200d/1.3,2013-02-08 01:45:00,
2013-02-07 18:00:00,47.7,32.0,29.94,West,268,0.0,0.0,37,0.00,,,-99.99,wx200d/1.3,2013-02-08 02:00:00,
2013-02-07 18:15:00,47.5,32.0,29.94,West,277,0.0,0.0,38,0.00,,,-99.99,wx200d/1.3,2013-02-08 02:15:00,
2013-02-07 18:30:00,48.4,32.0,29.91,West,277,0.0,0.0,38,0.00,,,-99.99,wx200d/1.3,2013-02-08 02:30:00,
2013-02-07 18:45:00,48.0,32.0,29.91,West,277,0.0,0.0,38,0.00,,,-99.99,wx200d/1.3,2013-02-08 02:45:00,
2013-02-07 19:00:00,48.7,32.0,29.91,West,277,0.0,0.0,39,0.00,,,-99.99,wx200d/1.3,2013-02-08 03:00:00,
2013-02-07 19:15:00,47.5,32.0,29.91,West,261,2.7,2.7,53,0.00,,,-99.99,wx200d/1.3,2013-02-08 03:15:00,
2013-02-07 19:30:00,46.6,34.0,29.94,West,266,0.0,0.0,63,0.00,,,-99.99,wx200d/1.3,2013-02-08 03:30:00,
2013-02-07 19:45:00,46.8,36.0,29.91,West,265,0.0,0.0,66,0.00,,,-99.99,wx200d/1.3,2013-02-08 03:45:00,
2013-02-07 20:00:00,46.4,36.0,29.91,West,265,0.0,0.0,67,0.00,,,-99.99,wx200d/1.3,2013-02-08 04:00:00,
2013-02-07 20:15:00,46.6,36.0,29.91,West,267,0.0,0.0,68,0.00,,,-99.99,wx200d/1.3,2013-02-08 04:15:00,
2013-02-07 20:30:00,46.9,37.0,29.91,West,266,0.0,0.0,69,0.00,,,-99.99,wx200d/1.3,2013-02-08 04:30:00,
2013-02-07 20:45:00,47.1,37.0,29.91,West,266,0.0,0.0,69,0.00,,,-99.99,wx200d/1.3,2013-02-08 04:45:00,
2013-02-07 21:15:00,46.9,37.0,29.91,West,266,0.0,0.0,72,0.00,,,-99.99,wx200d/1.3,2013-02-08 05:15:00,
2013-02-07 21:30:00,45.9,37.0,29.91,West,266,0.0,0.0,72,0.00,,,-99.99,wx200d/1.3,2013-02-08 05:30:00,
2013-02-07 21:45:00,45.0,36.0,29.88,West,266,0.0,0.0,72,0.00,,,-99.99,wx200d/1.3,2013-02-08 05:45:00,
2013-02-07 22:00:00,44.4,37.0,29.88,West,266,0.0,0.0,74,0.00,,,-99.99,wx200d/1.3,2013-02-08 06:00:00,
2013-02-07 22:15:00,43.9,37.0,29.88,West,266,0.0,0.0,75,0.00,,,-99.99,wx200d/1.3,2013-02-08 06:15:00,
2013-02-07 22:30:00,43.9,37.0,29.88,West,266,0.0,0.0,76,0.00,,,-99.99,wx200d/1.3,2013-02-08 06:30:00,
2013-02-07 22:45:00,43.5,36.0,29.88,West,266,0.0,0.0,77,0.00,,,-99.99,wx200d/1.3,2013-02-08 06:45:00,
2013-02-07 23:00:00,43.3,36.0,29.88,West,266,0.0,0.0,78,0.00,,,-99.99,wx200d/1.3,2013-02-08 07:00:00,
2013-02-07 23:15:00,43.2,37.0,29.88,West,259,0.0,0.0,79,0.00,,,-99.99,wx200d/1.3,2013-02-08 07:15:00,
2013-02-07 23:30:00,43.2,37.0,29.88,West,259,0.0,0.0,80,0.00,,,-99.99,wx200d/1.3,2013-02-08 07:30:00,
2013-02-07 23:45:00,43.0,37.0,29.85,SSE,147,0.0,0.0,82,0.00,,,-99.99,wx200d/1.3,2013-02-08 07:45:00,